User: anonymous   Login
Location: Mississauga
(43.5802°N, 79.6166°W)
Time: 17:14:15
(UTC-05:00)
Language:

Cosmos 1437 Rocket - Orbit

View from above orbital plane
View from above orbital plane
View from above satellite
View from above satellite

Ground track
Ground track

The orbit data is extracted from the following two-line orbital elements,

1 13771U 83003B   14327.21007449  .00003027  00000-0  19830-3 0  1827
2 13771 081.1562 001.9107 0029939 223.2496 136.6377 15.07085878732499
Epoch (UTC): 23 November 2014 05:02:30
Eccentricity: 0.0029939
inclination: 81.1562°
perigee height: 524 km
apogee height: 566 km
right ascension of ascending node: 1.9107°
argument of perigee: 223.2496°
revolutions per day: 15.07085878
mean anomaly at epoch: 136.6377°
orbit number at epoch: 73249

The dashed part of the orbit path shows where the satellite is in the earth's shadow,  

DLR